Theta_e
323 318 321 320 310 309 305 306 309 306 307 315 319 318 316 320 315 314 338 340 340 342 347 350 349 350 351 351 351 350 350 349 348 348 347 345 343 342 341 340 339 338 338 339 337 336 335 334 336
317 317 321 318 306 302 302 309 306 309 315 318 321 320 318 318 329 332 334 341 341 343 346 346 347 350 350 350 349 350 349 348 346 345 344 343 342 341 340 339 339 337 339 338 338 337 334 333 331
314 317 314 309 306 301 301 307 310 311 319 318 317 322 318 320 331 333 341 340 341 343 345 345 346 350 350 349 348 348 348 347 345 345 344 343 342 340 339 340 340 339 337 334 335 338 335 333 335
315 315 312 303 301 303 304 308 310 311 318 316 318 314 324 332 332 337 342 339 341 342 344 344 347 349 349 348 348 348 348 347 346 345 344 343 342 341 339 338 338 341 336 335 336 335 336 334 335
317 311 301 301 302 304 306 310 311 310 313 313 316 314 318 330 338 340 342 339 341 341 345 347 345 347 348 348 348 347 347 347 347 345 343 343 342 340 337 337 338 338 337 335 334 334 335 334 338
306 308 298 297 300 303 305 310 310 311 312 313 313 313 319 331 336 339 342 341 342 341 345 344 339 341 344 346 346 346 346 346 345 344 343 341 340 339 338 336 335 334 333 333 333 334 335 334 337
307 301 298 298 298 299 303 309 309 311 311 311 315 310 320 328 338 341 342 343 342 342 343 343 344 340 336 340 341 343 344 343 344 343 343 342 341 340 339 339 336 334 333 332 332 333 334 333 337
307 302 297 298 298 299 305 307 309 310 310 314 317 310 312 326 338 340 341 341 342 342 341 341 341 342 340 340 334 336 339 339 340 339 338 336 336 337 336 335 337 336 335 335 335 334 334 334 336
310 299 296 298 299 301 306 305 309 310 309 310 314 314 318 330 337 338 338 338 339 338 339 340 340 340 340 340 338 332 332 333 334 335 332 331 339 338 335 333 333 334 335 335 335 335 336 334 331
303 297 299 303 305 303 304 305 307 305 307 308 309 314 316 326 333 334 334 334 334 336 337 339 340 340 341 339 342 341 340 340 341 342 341 340 340 339 336 329 328 330 330 332 334 334 333 329 332
303 298 302 302 303 303 303 302 306 304 304 308 308 311 312 318 326 329 331 333 335 337 338 338 339 341 342 341 342 342 343 344 342 340 340 340 339 339 338 338 337 338 328 337 336 334 335 335 334
298 301 301 302 302 301 301 303 302 303 306 307 309 309 310 311 317 323 326 330 334 335 338 338 340 339 341 341 340 340 339 336 327 319 325 334 334 333 333 333 334 334 333 331 333 334 335 334 334
298 299 300 302 300 300 301 299 301 302 306 308 306 304 305 306 309 316 323 328 333 333 335 337 339 338 338 338 335 331 324 321 315 313 313 315 315 316 317 318 319 320 321 322 323 324 326 328 328
299 298 299 300 299 299 296 299 297 301 303 303 305 304 304 305 306 309 315 325 330 333 334 337 337 337 334 331 328 323 320 316 315 314 313 313 313 313 312 312 312 312 314 314 314 314 316 319 321
297 294 298 298 298 297 296 294 295 301 300 299 299 300 301 303 304 306 311 320 329 333 335 328 322 324 326 321 319 316 313 312 311 311 311 311 311 311 311 312 312 312 313 313 313 312 313 313 314
293 293 292 296 295 296 295 294 299 299 298 298 299 300 301 302 302 305 310 315 327 332 322 318 314 314 314 315 313 311 310 310 309 308 308 308 307 307 307 307 307 309 308 308 309 309 310 311 312
292 291 292 294 295 294 293 295 299 298 298 298 299 301 302 302 303 304 308 314 321 330 319 313 314 311 308 309 309 308 308 306 306 306 307 307 308 308 307 307 308 309 308 307 307 306 306 307 308
291 289 293 293 293 292 293 293 299 297 297 298 300 302 302 302 303 305 304 309 315 324 313 308 310 309 308 307 306 305 305 305 305 306 306 306 306 306 306 306 307 307 306 306 307 306 307 307 306
294 294 293 296 292 291 293 294 297 301 299 299 300 301 301 300 302 303 303 305 310 314 311 307 305 305 305 304 304 304 303 304 304 306 306 305 305 305 305 305 305 305 304 304 304 304 304 305 307
292 291 293 295 292 290 293 293 297 299 300 301 301 301 300 299 298 299 301 303 305 306 307 305 304 303 303 304 304 304 304 303 304 305 304 304 304 304 303 303 303 303 302 303 303 303 302 303 305
291 291 292 292 291 291 290 291 295 300 299 300 299 297 298 298 297 297 299 301 304 304 303 302 302 302 302 302 302 303 303 303 303 303 304 303 303 302 302 301 301 301 301 300 301 301 300 298 302
288 295 293 292 289 289 290 287 295 299 297 294 295 295 296 296 297 297 298 301 302 302 302 301 301 301 302 303 303 303 301 300 301 302 302 302 302 301 300 300 300 300 300 299 299 299 298 298 297
291 291 290 290 289 287 289 286 291 297 296 295 295 295 296 296 296 296 298 300 301 301 301 301 301 302 302 302 302 302 301 301 301 301 301 301 301 300 299 299 299 298 298 299 298 297 297 298 297
291 289 288 288 287 281 286 287 289 294 295 297 296 294 294 295 296 297 299 299 299 301 300 301 301 301 301 301 301 301 300 299 299 299 299 299 299 299 299 298 298 297 296 296 296 296 296 296 296
289 287 283 280 279 281 290 285 290 296 296 296 293 293 294 295 295 297 296 296 298 298 299 301 300 299 300 300 300 300 299 299 298 298 298 297 297 298 298 297 297 296 295 294 293 293 293 294 294
285 287 286 280 282 285 282 280 289 293 295 294 295 294 294 294 295 295 296 297 297 298 299 299 300 298 299 300 299 299 299 299 299 298 297 297 296 297 297 296 296 296 296 294 294 293 293 293 293
286 283 290 284 276 280 286 287 292 291 290 291 292 293 293 294 295 295 296 297 297 298 298 299 299 298 298 299 299 298 298 298 297 297 297 297 297 296 296 296 295 296 296 295 294 293 293 293 294
286 289 281 282 278 277 284 285 288 288 288 289 290 291 293 294 295 295 296 297 298 298 298 300 299 298 298 299 298 298 297 297 297 297 296 296 296 296 295 295 295 295 295 295 295 294 294 293 294
283 282 283 285 284 280 280 285 292 290 292 290 291 292 293 293 294 295 296 297 297 297 297 298 297 297 297 297 297 296 296 296 296 296 296 295 295 295 294 294 294 293 293 293 293 292 292 291 292
287 284 285 280 279 283 282 284 291 291 293 292 292 292 294 294 294 295 296 296 295 295 296 296 296 296 296 296 296 296 296 296 295 295 295 295 294 293 292 292 291 290 290 291 290 290 291 290 291
Wind_Speed
15 8 5 6 7 6 10 4 2 7 6 3 2 0 2 8 6 5 7 7 15 16 18 16 14 14 13 13 14 12 12 13 13 12 11 10 9 8 6 5 4 3 2 5 6 7 8 4 4
10 7 5 4 8 9 7 7 8 7 5 5 5 3 5 6 7 9 11 6 15 16 17 16 12 14 13 13 14 13 12 12 12 11 10 9 8 7 5 3 3 2 6 6 4 4 5 6 4
8 5 5 5 7 11 4 4 7 7 8 6 5 3 3 6 5 11 11 12 17 15 16 14 11 15 15 13 12 12 11 11 11 11 10 9 7 5 3 1 3 5 6 5 5 4 5 3 5
5 5 5 7 10 7 4 4 4 8 7 3 1 5 5 6 4 7 12 13 16 14 15 17 12 11 13 13 12 12 10 10 10 10 8 8 6 5 3 1 1 7 5 5 5 5 3 4 4
5 4 8 8 13 7 5 3 5 9 10 9 6 6 4 5 6 10 12 12 14 13 15 16 11 11 12 11 10 10 10 9 9 8 7 5 5 4 3 3 5 5 4 3 3 2 2 2 6
5 5 6 12 11 6 6 6 6 9 8 7 6 3 6 7 9 10 12 12 13 12 14 13 11 12 11 12 12 9 8 7 7 7 7 6 5 4 4 3 3 3 2 2 3 3 4 5 6
9 6 11 6 5 6 7 4 8 10 8 8 3 4 8 9 9 10 12 12 12 13 13 10 14 11 9 10 10 9 8 8 8 8 7 7 6 6 5 4 3 2 1 0 2 3 4 6 7
5 4 4 8 8 5 5 6 1 6 8 4 2 4 6 12 10 10 10 11 12 12 12 10 11 13 12 10 9 9 8 9 8 7 7 6 5 5 5 4 7 4 3 3 3 4 5 6 7
2 6 7 5 7 3 5 7 5 2 5 5 5 1 8 11 11 11 10 10 10 10 10 10 11 11 9 10 11 8 7 7 7 7 7 7 7 8 9 5 4 2 4 5 5 6 6 6 9
7 6 6 4 2 1 3 4 2 5 10 10 8 7 6 10 11 13 13 12 12 12 10 11 10 11 11 9 10 11 10 8 8 8 7 7 5 1 3 1 1 3 4 6 7 8 8 8 8
5 6 3 3 2 3 3 5 4 6 8 10 11 13 11 11 12 13 13 14 14 13 11 11 10 12 12 9 6 5 5 4 3 2 2 3 2 2 1 0 2 3 2 4 4 4 6 8 7
5 8 6 1 0 2 6 4 7 11 12 6 4 2 9 11 12 13 13 13 15 14 13 12 13 11 10 5 5 5 4 4 4 4 4 3 2 1 1 2 3 3 0 5 7 4 6 4 6
9 6 4 5 4 7 8 11 11 13 13 10 5 4 9 10 11 12 12 12 12 14 15 14 12 10 7 6 5 5 6 5 5 4 4 2 1 1 2 3 4 4 5 4 5 7 7 7 8
2 5 9 6 9 7 7 11 1 4 7 11 13 12 13 14 14 12 12 13 14 13 14 11 11 9 8 7 7 6 6 6 5 4 4 5 3 2 2 3 3 4 4 5 6 7 7 7 8
1 6 10 11 8 6 3 11 18 15 7 8 9 8 8 8 8 13 13 13 13 11 10 10 7 4 9 9 7 6 5 5 5 5 6 5 5 4 3 3 3 4 5 6 6 7 7 7 8
4 3 5 7 8 4 6 13 6 4 8 11 10 7 7 8 7 11 11 13 13 11 11 10 8 8 6 8 6 6 6 6 5 5 5 5 5 5 3 3 4 4 5 5 6 6 6 7 7
7 8 10 6 9 4 11 7 9 6 8 9 10 7 7 8 10 9 11 11 13 13 13 11 12 11 10 6 7 7 7 6 5 5 4 4 4 5 5 4 4 5 6 6 6 6 7 7 7
8 8 11 10 7 8 10 17 12 9 11 11 11 11 10 11 12 12 12 13 13 13 13 8 10 11 11 8 7 6 6 5 5 4 4 4 3 5 5 4 5 5 5 6 6 8 7 8 8
7 9 11 5 4 5 14 17 18 14 16 16 16 14 11 11 7 7 8 13 13 13 15 15 13 13 10 8 7 6 6 5 4 4 4 4 5 5 5 4 5 5 5 6 7 7 9 7 7
13 13 13 11 4 4 13 19 19 19 17 18 17 15 11 9 9 10 11 12 14 15 15 14 13 13 9 7 5 4 5 3 3 3 3 4 4 5 4 5 5 6 6 7 7 6 7 7 6
15 16 12 7 3 11 9 17 18 18 9 14 11 11 9 10 11 12 13 13 14 15 15 14 13 12 9 8 6 5 4 4 4 2 2 3 4 4 5 6 5 6 6 5 6 7 8 7 6
14 12 14 10 3 5 2 11 13 6 10 11 12 11 11 10 9 13 14 15 15 13 13 13 12 11 9 7 6 4 2 2 3 1 2 2 3 4 4 5 5 6 5 6 5 6 7 7 7
6 2 7 8 7 2 8 5 6 7 13 15 14 12 10 10 11 14 15 15 15 13 12 12 12 10 9 7 6 4 4 3 2 1 2 2 2 3 4 5 6 6 5 6 7 7 7 6 7
11 8 6 3 4 7 10 10 24 17 18 15 14 11 11 12 13 14 15 15 14 12 12 11 12 10 8 7 6 6 5 3 1 2 2 2 2 3 3 5 6 5 6 7 8 9 9 8 8
12 11 4 6 7 11 4 11 20 4 6 7 14 14 13 13 15 16 16 15 14 13 12 11 11 10 8 8 7 6 5 3 2 2 2 4 3 4 5 6 6 5 6 7 7 7 8 8 8
18 14 9 11 11 11 3 11 9 1 2 4 11 13 14 15 15 16 16 14 14 13 12 11 10 10 8 8 7 5 4 2 1 2 3 3 4 4 6 6 7 7 7 6 7 6 7 8 7
11 15 12 3 1 4 7 10 12 8 7 8 13 16 17 17 16 17 15 14 13 12 12 11 10 9 8 7 6 5 3 3 2 2 3 3 5 5 6 7 7 8 8 8 8 6 8 8 8
7 2 7 3 7 8 9 7 11 10 13 13 16 17 17 17 16 15 14 14 12 11 10 10 9 9 8 7 5 4 3 2 1 2 3 4 5 6 7 7 8 8 9 9 9 8 9 9 7
8 7 6 4 9 4 6 4 7 4 11 16 17 17 18 17 16 15 13 12 11 10 10 9 9 9 8 6 5 4 3 1 2 2 3 4 5 6 7 8 9 10 11 11 10 10 11 11 10
11 13 16 7 5 10 4 6 3 5 4 12 14 15 16 16 15 14 12 11 10 10 10 10 9 8 7 6 6 5 4 3 2 2 3 4 5 6 7 7 8 10 9 9 9 10 11 12 11
Wind_Direction
287 274 278 255 244 229 257 207 325 178 190 115 50 300 336 8 355 26 142 99 132 143 142 151 148 153 152 138 136 133 132 132 129 127 127 127 126 122 118 117 116 105 109 114 99 107 107 98 65
300 288 239 268 252 238 246 147 199 180 77 157 144 174 201 100 69 104 144 150 148 144 144 152 147 154 146 140 144 142 137 137 137 138 137 135 135 133 134 150 179 120 91 117 71 156 117 122 109
266 250 249 231 248 252 278 159 172 134 148 167 144 319 37 76 83 141 101 151 147 149 153 137 150 147 147 146 144 135 141 149 149 149 148 149 151 145 142 149 225 172 131 116 72 110 149 157 152
216 191 232 246 236 260 288 155 155 156 166 171 293 171 119 37 111 92 128 148 148 152 151 139 149 144 143 149 147 147 156 159 159 162 161 167 166 140 127 34 277 153 141 116 89 82 177 214 244
224 245 230 234 242 231 227 107 194 187 170 173 193 135 99 109 111 128 138 152 153 155 136 150 150 152 152 151 152 161 171 177 174 159 145 135 146 142 123 83 85 111 119 91 60 51 44 319 293
211 278 229 229 211 201 226 196 209 217 179 135 200 171 100 116 146 139 145 153 152 164 144 155 163 154 163 165 164 169 182 176 161 165 160 163 166 164 164 152 121 105 71 13 344 332 319 306 295
267 229 244 272 233 213 209 179 214 208 187 189 40 222 92 156 132 148 158 153 157 166 155 166 172 171 158 162 161 168 172 174 177 179 174 175 175 180 178 180 177 171 179 295 325 318 317 305 303
277 274 240 225 214 200 149 190 322 248 204 72 312 234 164 132 144 152 155 158 165 162 167 177 174 173 180 179 163 172 186 189 194 194 183 185 190 196 195 196 203 208 232 249 268 293 304 307 307
282 250 243 234 219 122 149 206 164 47 256 203 175 295 98 137 156 162 165 168 164 177 177 171 182 183 177 186 177 187 202 199 197 199 202 197 226 189 182 134 98 274 271 277 285 284 280 283 266
232 245 248 23 358 171 140 250 199 229 205 216 198 150 149 159 174 180 182 179 182 183 181 180 185 183 190 193 175 197 196 208 208 213 210 221 247 332 343 112 180 251 270 269 264 269 272 266 262
186 253 18 196 297 309 262 244 218 241 234 236 210 193 181 183 191 199 200 185 192 188 184 184 186 192 188 187 188 191 191 198 198 111 85 58 52 43 29 316 230 261 221 280 276 265 250 253 278
250 250 260 343 137 251 242 301 248 238 247 44 13 88 183 196 203 212 208 207 185 184 194 187 191 185 185 188 185 172 153 122 112 95 67 93 93 110 191 258 263 264 130 315 282 262 269 283 291
235 257 263 258 238 263 273 257 262 263 246 260 210 222 230 225 223 219 226 211 197 184 193 190 186 179 162 162 137 126 119 114 113 108 107 137 120 10 327 326 320 319 317 281 284 282 283 284 279
23 269 268 262 257 250 258 269 309 216 214 243 239 246 238 236 237 229 218 215 200 191 193 177 182 167 156 150 139 129 124 123 109 85 72 63 51 25 358 345 329 318 324 316 312 308 305 300 288
295 274 248 234 231 247 243 256 232 241 180 191 198 222 230 223 238 227 212 219 206 193 163 149 141 105 145 130 126 115 113 113 107 101 82 74 51 44 7 358 332 338 330 305 293 291 289 286 283
231 234 249 120 183 171 210 257 140 160 202 222 206 197 201 211 222 211 216 208 201 185 147 153 142 131 119 124 128 121 123 114 110 102 90 68 49 23 351 339 325 338 308 303 295 296 295 287 284
207 253 217 211 200 165 208 272 112 173 199 194 203 221 224 227 210 196 202 199 193 184 163 156 150 143 121 115 122 117 119 115 112 106 92 69 51 17 350 337 328 328 314 307 307 304 298 295 291
228 229 239 243 164 215 219 250 257 191 215 221 235 249 248 240 232 215 196 196 185 179 156 145 145 142 133 132 130 125 124 123 117 104 78 44 33 2 343 325 320 321 311 307 306 305 299 296 294
295 261 255 206 129 246 239 253 265 263 216 242 249 246 235 243 234 226 202 197 180 169 161 155 149 147 144 150 152 150 143 139 124 105 62 42 15 358 344 331 324 316 307 307 301 299 297 292 296
238 253 260 273 159 245 269 266 264 261 252 246 253 255 236 221 212 203 185 183 177 165 161 155 147 151 150 152 140 147 142 120 99 102 82 50 6 359 335 335 323 317 311 305 300 302 303 297 282
229 236 234 238 215 229 283 271 254 252 240 247 244 252 248 232 205 185 180 178 171 164 155 147 144 140 132 125 129 120 115 136 159 127 69 26 7 348 345 332 326 319 315 310 317 309 302 294 298
244 224 240 248 221 246 293 285 271 251 223 214 224 216 221 208 200 181 177 170 164 153 142 135 132 127 126 131 125 137 126 159 78 62 40 350 13 345 338 336 333 323 320 310 317 314 312 302 292
247 119 208 227 234 358 195 258 250 243 235 226 214 213 200 187 185 177 176 164 149 139 140 135 130 123 118 110 113 120 110 100 84 71 356 8 360 346 345 343 337 331 324 322 312 307 301 296 289
131 122 113 142 142 240 189 199 271 244 232 228 190 191 183 173 169 167 163 145 149 140 139 137 131 122 119 114 108 104 116 108 79 35 6 10 344 342 336 334 327 330 330 329 328 317 303 293 287
193 171 175 205 196 239 156 197 249 321 308 283 176 183 176 167 161 155 153 158 150 151 145 141 138 135 134 128 125 119 111 107 78 18 4 344 343 343 332 326 313 311 314 310 306 302 299 299 293
202 200 223 244 234 240 142 225 257 343 48 206 177 172 166 166 161 163 163 157 155 151 152 149 149 143 147 141 131 130 121 93 71 42 357 337 332 327 330 319 315 307 302 295 281 269 271 273 281
184 224 253 274 172 282 223 243 272 164 185 194 173 170 171 168 164 163 160 158 157 157 159 157 153 149 149 147 148 141 127 105 69 16 346 327 317 323 319 326 320 310 301 294 290 275 279 272 263
238 294 185 191 222 231 236 254 247 203 198 189 184 180 172 167 166 162 164 162 160 158 155 153 154 155 153 155 156 147 125 85 27 312 318 313 313 321 324 324 319 315 310 304 299 294 289 286 277
187 215 223 275 230 247 267 223 37 16 202 195 188 184 174 169 168 166 165 160 155 153 157 156 154 152 157 162 150 146 150 199 245 267 299 316 323 332 328 326 324 321 316 310 301 293 291 285 277
263 232 213 215 222 245 310 283 37 5 241 185 186 183 172 171 170 168 165 161 162 163 163 162 163 165 168 164 164 177 185 206 241 303 320 335 334 338 326 322 318 311 300 297 296 293 288 287 286